Temp
-11 -10 -10 -11 -11 -11 -12 -12 -12 -12 -13 -13 -14 -14 -15 -15 -16 -16 -16 -16 -16 -16 -16 -16 -16 -17 -18 -18 -18 -18 -19 -19 -19 -19 -19 -20 -20 -21 -21 -21 -22 -22 -23
-11 -11 -11 -11 -11 -11 -12 -13 -13 -13 -14 -14 -14 -15 -15 -16 -16 -16 -16 -16 -16 -16 -16 -16 -17 -18 -18 -18 -19 -19 -19 -19 -19 -20 -20 -21 -21 -21 -21 -22 -23 -23 -23
-11 -11 -11 -11 -12 -12 -12 -13 -14 -14 -14 -15 -15 -15 -15 -16 -16 -16 -16 -16 -16 -16 -16 -17 -18 -19 -19 -19 -20 -20 -20 -20 -20 -20 -21 -21 -22 -22 -22 -23 -24 -24 -24
-12 -11 -12 -12 -12 -12 -13 -13 -14 -14 -15 -15 -15 -16 -16 -16 -16 -16 -16 -16 -16 -16 -17 -18 -19 -19 -20 -20 -20 -20 -20 -21 -21 -21 -22 -22 -22 -23 -23 -24 -24 -25 -26
-12 -12 -13 -13 -13 -13 -14 -14 -14 -15 -15 -16 -16 -16 -16 -16 -16 -16 -16 -16 -16 -17 -18 -19 -20 -20 -20 -20 -21 -21 -21 -21 -21 -22 -22 -22 -23 -24 -24 -24 -25 -26 -27
-12 -13 -13 -14 -14 -14 -15 -15 -15 -15 -16 -16 -16 -16 -16 -16 -16 -16 -16 -16 -17 -18 -19 -20 -20 -21 -21 -21 -21 -21 -22 -22 -23 -23 -23 -23 -24 -25 -25 -26 -26 -27 -27
-13 -13 -14 -14 -14 -14 -15 -15 -15 -16 -16 -16 -16 -16 -16 -16 -16 -16 -16 -16 -18 -19 -20 -20 -21 -21 -21 -21 -21 -22 -22 -23 -24 -24 -24 -25 -25 -26 -27 -27 -28 -29 -29
-13 -14 -14 -15 -15 -15 -15 -15 -15 -15 -16 -16 -16 -16 -16 -16 -16 -17 -17 -17 -19 -20 -21 -21 -21 -21 -22 -22 -22 -23 -24 -24 -25 -25 -25 -26 -27 -27 -28 -29 -29 -30 -31
-14 -14 -15 -15 -15 -15 -15 -15 -15 -16 -16 -16 -17 -16 -16 -16 -16 -17 -18 -20 -20 -21 -21 -21 -22 -22 -22 -22 -23 -24 -25 -26 -26 -26 -27 -28 -28 -29 -30 -30 -31 -32 -32
-15 -15 -15 -15 -15 -16 -16 -16 -16 -16 -17 -17 -17 -17 -17 -17 -18 -19 -20 -21 -21 -21 -21 -22 -22 -23 -23 -24 -25 -25 -26 -26 -26 -27 -28 -29 -30 -30 -31 -32 -33 -34 -34
-16 -16 -16 -16 -16 -16 -16 -16 -17 -17 -17 -17 -17 -17 -18 -19 -19 -20 -21 -21 -21 -21 -22 -23 -23 -24 -25 -25 -26 -26 -25 -27 -28 -28 -29 -30 -30 -31 -32 -33 -34 -34 -35
-17 -17 -16 -16 -16 -16 -17 -17 -17 -18 -18 -18 -18 -18 -19 -19 -20 -20 -21 -21 -22 -22 -23 -24 -24 -26 -26 -25 -25 -27 -28 -28 -29 -29 -30 -30 -32 -33 -34 -34 -35 -35 -35
-17 -17 -17 -17 -17 -18 -18 -18 -18 -18 -18 -19 -18 -19 -20 -20 -21 -21 -22 -23 -23 -23 -24 -25 -26 -25 -26 -27 -28 -29 -29 -30 -30 -30 -31 -32 -33 -34 -35 -35 -35 -36 -36
-18 -18 -18 -18 -18 -19 -19 -19 -19 -19 -19 -19 -19 -20 -21 -21 -22 -23 -23 -23 -24 -24 -24 -24 -26 -27 -28 -28 -29 -29 -30 -31 -31 -32 -33 -34 -35 -35 -36 -36 -36 -36 -36
-18 -19 -19 -19 -19 -19 -20 -20 -20 -20 -20 -21 -21 -21 -22 -22 -22 -22 -23 -23 -24 -25 -26 -27 -27 -27 -28 -29 -29 -30 -31 -32 -32 -34 -34 -35 -36 -36 -36 -36 -36 -37 -37
-20 -20 -20 -20 -20 -20 -20 -20 -20 -21 -21 -21 -22 -22 -22 -22 -23 -23 -24 -25 -26 -26 -27 -27 -28 -29 -29 -30 -31 -31 -32 -33 -34 -35 -36 -36 -36 -36 -37 -37 -37 -37 -37
-21 -21 -21 -21 -21 -21 -21 -22 -22 -23 -23 -23 -23 -23 -23 -24 -24 -25 -26 -26 -27 -27 -28 -29 -29 -30 -31 -31 -32 -33 -34 -35 -35 -36 -36 -36 -37 -37 -37 -37 -38 -37 -37
-22 -22 -22 -22 -22 -22 -23 -23 -23 -23 -23 -24 -24 -25 -25 -26 -26 -27 -27 -28 -28 -28 -29 -30 -31 -31 -32 -32 -33 -35 -36 -36 -36 -36 -37 -37 -37 -37 -37 -38 -38 -37 -38
-23 -23 -23 -23 -24 -24 -24 -24 -24 -24 -25 -25 -26 -26 -27 -28 -28 -28 -28 -29 -29 -30 -31 -31 -32 -32 -33 -33 -35 -36 -36 -37 -37 -37 -37 -37 -37 -37 -38 -38 -38 -38 -38
-24 -24 -24 -24 -24 -25 -25 -25 -25 -26 -26 -27 -27 -28 -28 -29 -29 -29 -30 -30 -31 -31 -32 -32 -33 -34 -34 -35 -36 -37 -37 -37 -38 -38 -38 -37 -38 -38 -38 -39 -39 -39 -39
-25 -26 -26 -26 -26 -26 -26 -26 -27 -27 -28 -28 -29 -29 -29 -30 -30 -31 -31 -32 -32 -32 -33 -33 -34 -35 -35 -36 -37 -37 -38 -38 -38 -38 -38 -38 -38 -38 -39 -39 -39 -39 -40
-26 -27 -27 -27 -27 -28 -28 -28 -29 -29 -29 -30 -30 -30 -31 -31 -32 -32 -32 -32 -33 -33 -34 -34 -35 -36 -37 -37 -38 -38 -38 -38 -38 -38 -38 -38 -39 -39 -40 -39 -39 -40 -40
-28 -28 -29 -29 -29 -29 -29 -30 -30 -30 -31 -31 -31 -32 -32 -33 -33 -33 -33 -33 -34 -34 -34 -35 -36 -37 -38 -38 -38 -38 -38 -39 -39 -39 -39 -39 -39 -40 -40 -40 -40 -40 -41
-29 -30 -30 -30 -30 -31 -31 -31 -31 -31 -32 -32 -33 -33 -33 -33 -33 -33 -33 -34 -34 -35 -36 -36 -37 -38 -38 -38 -39 -39 -39 -39 -39 -40 -40 -40 -40 -40 -40 -40 -40 -40 -40
-31 -31 -31 -31 -32 -32 -32 -32 -32 -33 -33 -33 -33 -33 -34 -34 -34 -34 -35 -35 -35 -36 -36 -37 -37 -38 -38 -38 -38 -39 -39 -40 -40 -41 -40 -40 -40 -40 -40 -40 -40 -40 -40
-32 -32 -32 -32 -32 -32 -33 -33 -33 -33 -33 -34 -34 -34 -34 -35 -35 -35 -35 -35 -36 -36 -37 -37 -38 -38 -38 -39 -39 -39 -40 -41 -41 -41 -41 -40 -40 -40 -40 -40 -40 -40 -40
Height
5744 5743 5742 5741 5740 5740 5738 5737 5736 5735 5734 5733 5732 5731 5730 5728 5726 5724 5721 5718 5715 5712 5708 5704 5700 5696 5690 5684 5678 5672 5665 5659 5652 5644 5637 5631 5622 5616 5607 5597 5588 5579 5567
5732 5732 5731 5729 5728 5727 5726 5724 5723 5723 5722 5722 5720 5719 5717 5715 5712 5709 5706 5703 5700 5696 5692 5689 5685 5680 5673 5668 5661 5655 5649 5642 5635 5627 5619 5612 5604 5596 5587 5579 5569 5560 5549
5721 5720 5719 5718 5717 5716 5714 5712 5710 5709 5708 5707 5706 5705 5702 5700 5697 5694 5691 5688 5684 5680 5677 5673 5669 5662 5657 5650 5644 5638 5632 5625 5618 5611 5603 5595 5586 5575 5569 5561 5553 5542 5531
5710 5709 5707 5706 5705 5703 5701 5700 5699 5698 5696 5695 5693 5691 5688 5685 5682 5679 5676 5673 5669 5665 5661 5657 5651 5645 5639 5633 5627 5622 5615 5607 5600 5593 5585 5578 5568 5557 5551 5545 5538 5522 5515
5697 5696 5696 5694 5693 5692 5690 5688 5686 5684 5683 5681 5679 5676 5673 5671 5668 5664 5661 5657 5654 5650 5646 5641 5634 5627 5621 5616 5610 5605 5597 5588 5580 5574 5567 5559 5549 5540 5531 5524 5517 5509 5497
5684 5683 5681 5681 5680 5678 5677 5675 5673 5671 5670 5667 5664 5662 5659 5656 5651 5648 5644 5641 5638 5635 5631 5623 5615 5609 5603 5598 5594 5587 5579 5570 5561 5554 5548 5539 5531 5520 5510 5502 5494 5485 5477
5668 5666 5666 5665 5665 5664 5662 5661 5659 5657 5655 5654 5651 5648 5644 5639 5635 5631 5628 5624 5622 5620 5611 5603 5598 5592 5585 5581 5577 5570 5561 5552 5541 5534 5528 5519 5512 5500 5491 5482 5473 5464 5452
5653 5652 5651 5649 5649 5647 5646 5645 5643 5642 5640 5637 5635 5631 5626 5622 5618 5615 5612 5609 5606 5601 5590 5585 5581 5574 5566 5563 5558 5552 5545 5535 5524 5515 5512 5503 5490 5480 5470 5458 5453 5444 5432
5639 5638 5636 5634 5633 5632 5632 5630 5628 5625 5623 5621 5618 5614 5609 5602 5601 5599 5596 5593 5588 5581 5574 5568 5562 5556 5548 5543 5541 5534 5527 5517 5507 5497 5488 5479 5468 5458 5445 5437 5429 5419 5413
5624 5622 5621 5621 5619 5617 5616 5614 5612 5609 5608 5605 5601 5596 5591 5585 5582 5581 5579 5574 5567 5562 5557 5552 5544 5537 5531 5524 5521 5516 5510 5499 5491 5482 5471 5460 5448 5438 5428 5416 5404 5393 5384
5606 5605 5604 5603 5601 5599 5597 5596 5594 5593 5591 5588 5584 5579 5574 5568 5565 5563 5559 5553 5549 5546 5541 5534 5527 5519 5515 5509 5501 5496 5487 5479 5473 5464 5455 5446 5435 5423 5413 5402 5392 5381 5370
5587 5586 5585 5584 5583 5581 5579 5577 5577 5576 5574 5570 5567 5562 5556 5552 5547 5543 5540 5538 5533 5529 5524 5518 5511 5503 5498 5490 5481 5474 5466 5458 5451 5444 5437 5428 5418 5408 5397 5387 5375 5363 5353
5569 5569 5568 5567 5565 5563 5562 5560 5559 5558 5555 5553 5549 5545 5541 5535 5530 5526 5523 5520 5516 5512 5508 5501 5496 5486 5477 5470 5462 5454 5445 5438 5430 5422 5414 5405 5397 5388 5379 5369 5359 5347 5337
5551 5550 5549 5547 5547 5547 5545 5543 5541 5540 5537 5535 5532 5529 5525 5521 5516 5512 5509 5504 5499 5494 5489 5484 5474 5468 5461 5453 5446 5438 5429 5420 5411 5402 5393 5384 5377 5370 5360 5349 5340 5328 5318
5533 5532 5532 5530 5529 5528 5526 5525 5524 5522 5521 5518 5516 5513 5510 5505 5499 5495 5489 5483 5477 5471 5467 5461 5457 5451 5444 5437 5429 5421 5411 5401 5392 5382 5374 5365 5357 5349 5340 5328 5319 5308 5296
5516 5516 5516 5515 5514 5512 5510 5508 5507 5505 5503 5500 5497 5494 5490 5486 5481 5476 5471 5465 5460 5454 5451 5444 5437 5430 5423 5416 5408 5399 5391 5383 5374 5366 5357 5348 5339 5330 5320 5310 5300 5289 5276
5501 5500 5498 5498 5497 5496 5493 5491 5490 5488 5487 5483 5481 5477 5472 5469 5464 5458 5452 5448 5442 5437 5433 5425 5418 5411 5403 5395 5387 5380 5372 5365 5357 5349 5340 5331 5321 5311 5301 5290 5278 5266 5253
5485 5484 5483 5482 5481 5480 5478 5476 5474 5472 5470 5466 5462 5457 5453 5448 5445 5439 5435 5430 5424 5418 5412 5406 5399 5392 5384 5376 5368 5361 5354 5348 5340 5332 5322 5312 5302 5292 5280 5269 5257 5244 5233
5468 5468 5467 5466 5464 5463 5461 5458 5456 5453 5450 5446 5443 5439 5435 5429 5425 5419 5416 5410 5404 5398 5392 5386 5379 5372 5365 5358 5350 5343 5335 5328 5321 5312 5303 5293 5282 5271 5259 5249 5238 5227 5218
5450 5449 5449 5448 5446 5443 5441 5439 5435 5432 5429 5426 5423 5419 5415 5410 5405 5399 5395 5389 5383 5377 5371 5364 5358 5351 5344 5337 5330 5323 5316 5308 5301 5293 5283 5273 5262 5252 5242 5232 5223 5214 5204
5433 5432 5430 5429 5427 5424 5422 5420 5417 5413 5410 5406 5403 5399 5394 5389 5385 5380 5374 5368 5362 5356 5350 5342 5336 5329 5323 5316 5309 5303 5296 5289 5282 5273 5264 5255 5246 5235 5227 5221 5212 5204 5195
5415 5413 5412 5410 5408 5406 5404 5401 5398 5395 5391 5387 5383 5379 5374 5367 5363 5358 5353 5347 5340 5334 5327 5320 5314 5308 5302 5296 5290 5283 5276 5269 5262 5254 5247 5239 5230 5222 5216 5210 5203 5196 5191
5398 5397 5395 5393 5391 5389 5386 5383 5379 5375 5371 5367 5362 5358 5353 5348 5342 5336 5330 5324 5317 5311 5305 5298 5292 5286 5281 5276 5270 5264 5257 5250 5244 5238 5232 5224 5217 5212 5207 5202 5197 5191 5188
5382 5380 5378 5376 5373 5371 5368 5365 5360 5356 5351 5346 5341 5337 5331 5325 5318 5311 5305 5299 5292 5286 5281 5276 5271 5265 5260 5255 5250 5244 5238 5232 5227 5222 5217 5210 5205 5202 5198 5194 5191 5188 5186
5366 5363 5361 5359 5356 5352 5349 5344 5340 5335 5330 5325 5320 5313 5306 5300 5293 5286 5280 5275 5269 5263 5258 5254 5249 5245 5240 5235 5230 5226 5221 5217 5212 5208 5204 5199 5195 5192 5189 5186 5185 5183 5182
5350 5348 5344 5341 5337 5333 5328 5323 5318 5313 5307 5301 5294 5288 5281 5274 5268 5262 5256 5251 5246 5240 5235 5232 5228 5224 5220 5215 5211 5208 5204 5201 5198 5196 5192 5188 5185 5183 5180 5178 5177 5176 5176
Wind_Speed
43 43 42 40 39 40 41 42 44 45 45 46 48 51 53 55 56 58 59 61 62 64 66 67 68 61 64 69 72 75 76 77 78 79 80 81 83 86 90 92 94 96 97
45 45 45 44 43 42 42 43 44 46 47 49 52 54 55 57 59 61 62 64 66 70 71 70 63 62 67 70 72 74 75 78 80 81 82 83 85 89 92 95 96 98 96
45 44 46 46 45 45 45 45 46 48 50 52 54 56 58 60 62 64 67 68 70 73 72 68 65 67 69 70 71 74 76 79 81 83 83 84 87 91 94 96 95 95 93
45 46 47 47 47 48 48 49 50 51 53 55 56 58 60 62 65 67 69 71 74 72 71 69 69 69 70 71 72 74 77 80 83 85 85 86 90 93 95 96 94 93 89
47 47 49 49 49 50 50 51 51 53 54 56 59 61 64 66 69 71 74 75 73 70 70 68 69 71 72 72 75 77 80 83 86 85 86 89 91 94 94 94 93 88 90
48 47 46 46 49 49 51 51 52 54 56 57 60 63 67 70 74 76 76 75 72 70 66 68 70 72 73 75 77 80 83 85 86 86 88 90 93 93 93 91 89 90 92
52 48 47 45 45 47 49 50 51 54 57 59 62 66 71 75 76 74 74 76 73 63 69 72 72 74 77 78 78 82 84 83 85 87 90 92 90 90 88 87 88 89 89
51 49 47 47 47 49 50 51 52 55 58 60 63 66 73 71 72 74 77 76 67 65 72 72 74 76 78 79 82 81 81 81 83 90 92 90 89 87 88 89 90 89 84
54 54 53 53 54 55 56 57 57 58 60 62 64 68 73 73 75 78 67 48 60 68 72 74 75 76 79 81 80 78 79 82 87 88 88 86 85 85 87 88 87 84 82
58 59 59 60 60 60 62 64 65 65 63 62 65 69 72 74 63 55 47 58 66 70 72 74 75 75 76 76 76 80 82 84 86 85 82 82 83 84 84 83 82 83 83
67 68 67 66 64 62 62 64 63 62 60 62 64 65 66 60 56 49 56 64 68 70 71 70 70 71 74 77 80 83 85 85 84 81 81 83 84 83 80 78 79 81 83
63 64 64 64 65 64 63 63 63 62 62 61 63 65 63 59 56 60 63 64 66 66 67 68 71 73 75 81 85 83 82 81 82 84 84 84 81 77 77 78 80 83 85
62 63 64 64 63 62 61 60 59 61 59 60 63 62 60 59 60 62 62 61 64 69 70 70 72 79 81 78 77 78 80 82 84 84 82 79 76 76 77 79 82 85 86
62 61 61 59 58 56 55 54 55 56 57 59 59 59 60 59 58 61 64 66 68 70 75 78 77 77 77 76 78 80 82 82 82 80 78 75 75 76 79 83 83 86 88
59 57 54 52 51 51 52 53 54 54 55 55 57 60 62 64 68 71 75 79 80 77 78 78 77 77 78 80 81 82 82 83 81 78 77 76 77 81 84 84 86 89 92
46 47 50 52 53 54 56 57 58 58 59 60 62 64 68 72 75 78 78 76 75 76 77 76 76 78 80 80 81 81 82 81 78 78 77 80 83 84 84 87 89 90 92
51 51 53 55 55 55 54 54 54 57 59 62 65 68 71 75 76 75 74 75 75 75 74 76 78 79 79 80 80 78 77 75 75 76 79 83 82 84 86 87 89 89 85
52 51 51 53 54 55 56 58 60 63 65 67 69 71 72 73 73 71 70 71 73 75 76 77 78 79 79 78 76 75 73 74 76 79 81 78 81 85 87 85 85 78 68
51 51 52 54 57 60 62 64 65 67 68 68 68 68 67 66 68 70 72 74 76 78 79 80 81 79 76 76 75 73 75 76 76 74 77 83 85 84 82 80 71 62 60
56 57 57 58 59 59 61 64 66 66 66 66 66 66 66 67 70 73 75 76 78 79 80 79 79 77 77 76 75 75 74 71 74 78 81 82 77 79 74 62 56 55 55
52 52 55 58 61 62 63 65 66 66 66 66 67 69 70 71 73 75 76 77 79 81 80 80 79 76 75 74 70 70 71 76 79 79 77 73 75 67 56 50 49 49 42
57 56 56 57 59 60 61 62 63 65 67 68 69 70 71 74 75 76 78 81 82 80 78 78 76 74 73 72 73 73 73 74 74 71 70 69 61 52 45 43 42 36 26
54 55 55 56 59 61 62 64 65 66 67 68 70 71 71 74 77 80 81 82 82 81 78 74 71 70 69 70 72 72 73 70 68 68 63 56 49 42 40 36 32 23 17
54 56 56 59 61 62 63 65 66 68 70 70 72 74 78 81 82 83 82 80 78 75 72 70 70 71 71 72 72 69 65 66 63 59 52 46 42 38 34 30 23 21 16
55 56 58 60 62 64 66 67 68 69 72 75 78 79 81 81 81 79 78 77 75 73 72 71 70 69 68 66 65 64 61 59 56 49 43 41 37 35 30 27 23 20 16
55 59 62 63 64 66 69 72 75 77 79 79 79 83 84 83 81 79 77 75 74 72 69 68 67 67 66 64 62 60 56 50 46 40 39 37 34 33 28 26 23 20 17
Wind_Direction
278 277 277 277 277 278 277 277 277 277 277 273 271 272 274 276 277 277 278 280 282 285 287 289 291 290 290 291 292 293 296 299 301 301 302 304 306 307 310 313 314 314 314
274 277 277 275 276 277 277 276 276 275 274 273 273 275 276 277 277 277 278 280 282 287 288 289 288 290 288 291 292 295 298 299 301 303 303 304 307 309 311 311 313 312 315
276 277 279 279 278 279 278 276 274 272 271 271 273 274 275 275 276 277 278 280 284 287 287 287 292 289 289 291 293 296 297 300 302 302 302 304 306 308 309 310 310 312 314
275 277 279 280 280 279 278 278 278 277 276 276 275 275 275 275 276 276 279 282 287 289 287 289 290 289 290 292 295 296 299 301 301 300 301 303 304 306 307 307 310 313 313
277 279 278 276 276 279 278 277 278 278 277 276 276 276 276 277 279 280 282 286 288 287 287 289 288 290 292 293 294 297 299 300 299 300 301 302 303 305 306 310 311 311 313
279 282 279 276 275 274 276 278 278 278 279 279 279 280 281 282 280 282 283 287 290 289 288 286 287 290 293 293 294 297 297 298 299 299 301 302 303 305 310 311 311 313 314
281 280 279 278 277 275 274 273 274 276 278 280 282 283 283 282 283 283 285 288 287 288 286 286 289 292 292 293 294 295 296 298 297 300 301 302 305 310 309 310 313 314 313
279 278 276 274 274 272 272 272 272 274 276 278 281 282 283 281 283 285 286 284 287 285 284 286 289 290 292 292 293 295 295 297 297 298 300 305 309 309 310 312 313 312 312
279 278 277 275 275 274 273 273 274 275 276 276 277 278 280 280 283 283 286 286 284 282 284 286 289 289 289 291 293 293 294 296 298 302 308 310 309 311 312 311 310 311 312
276 276 278 279 278 276 276 276 277 276 276 275 275 278 280 281 282 280 282 285 280 280 283 286 286 288 289 291 292 294 295 298 304 308 308 309 311 311 310 309 309 310 310
279 280 279 278 276 275 275 276 277 276 276 274 276 277 277 275 274 278 278 273 277 283 284 285 286 288 289 292 292 294 301 305 306 307 308 309 309 308 307 307 307 306 307
277 276 274 274 274 273 273 273 274 274 272 271 272 274 274 273 272 276 281 282 282 284 285 285 287 290 289 290 298 304 304 305 307 308 307 307 307 307 306 305 305 307 308
274 273 273 273 272 272 272 272 271 270 270 271 272 273 276 279 280 281 284 284 280 281 285 287 284 289 297 302 303 304 305 306 307 307 307 307 307 305 304 305 306 306 307
273 273 272 272 273 272 271 270 269 268 269 271 273 276 279 282 280 279 280 282 282 282 285 294 297 299 301 301 302 304 304 305 306 306 306 304 304 304 305 305 306 306 308
271 271 271 271 270 270 270 269 269 269 270 271 271 272 275 279 281 283 285 289 292 295 295 296 298 298 299 301 303 304 305 306 306 306 304 303 303 305 306 306 306 307 308
279 279 280 278 275 273 270 269 268 268 271 275 279 282 284 285 286 287 289 291 293 293 295 296 297 300 302 303 305 305 305 305 304 303 302 302 304 305 304 305 306 306 307
273 272 270 270 269 268 269 272 276 279 281 283 284 285 287 287 288 289 290 291 292 293 295 298 300 303 304 304 304 303 302 301 301 299 300 302 304 304 306 306 307 308 308
264 264 267 270 272 273 274 276 279 281 281 284 287 287 287 287 287 288 290 291 293 296 298 301 302 304 303 301 300 300 299 298 298 300 301 301 303 306 308 308 308 307 307
268 272 273 274 274 275 276 279 281 284 285 286 286 285 286 287 289 290 292 294 296 298 301 302 303 303 300 299 299 298 298 298 298 299 301 304 307 309 308 309 308 307 307
266 268 270 273 274 277 281 283 284 285 285 285 285 287 288 290 291 292 294 297 299 300 301 301 301 299 299 298 297 297 299 298 299 303 305 307 307 308 309 309 309 309 312
273 281 279 284 284 284 283 283 282 283 284 285 287 288 289 291 293 295 297 297 298 299 299 300 300 299 297 296 297 297 296 299 302 304 306 308 308 308 309 310 311 314 313
286 285 284 283 282 282 283 284 285 285 285 287 288 290 292 294 295 296 296 297 298 298 298 298 297 296 295 295 296 297 298 301 302 303 305 307 307 307 309 312 314 313 311
280 280 281 282 282 283 284 284 285 286 288 290 292 294 294 295 296 297 297 297 297 296 296 296 296 295 294 294 296 298 300 300 301 302 305 306 305 307 310 310 313 309 306
281 282 282 283 283 284 286 287 289 290 292 292 293 295 296 296 296 296 296 296 296 295 294 293 293 293 293 294 295 297 297 298 298 302 304 303 303 307 307 303 301 300 294
281 283 284 286 288 289 290 291 291 292 293 294 295 295 295 297 297 296 295 295 294 293 292 292 291 291 293 294 295 295 294 294 296 301 301 302 300 307 302 293 288 288 278
286 288 289 289 290 291 291 291 292 293 294 294 295 296 297 297 296 296 294 293 291 289 289 289 289 289 291 291 292 292 292 290 293 294 299 298 298 304 298 286 278 272 268